TimeEDT,TemperatureF,Dew PointF,Humidity,Sea Level PressureIn,VisibilityMPH,Wind Direction,Wind SpeedMPH,Gust SpeedMPH,PrecipitationIn,Events,Conditions,WindDirDegrees,DateUTC
12:53 AM,55.9,43.0,62,29.91,10.0,North,5.8,-,N/A,,Clear,360,2012-10-16 04:53:00
1:53 AM,53.1,43.0,69,29.91,10.0,North,5.8,-,N/A,,Clear,360,2012-10-16 05:53:00
2:53 AM,53.1,43.0,69,29.93,10.0,Calm,Calm,-,N/A,,Clear,0,2012-10-16 06:53:00
3:53 AM,53.1,43.0,69,29.92,10.0,NNE,3.5,-,N/A,,Clear,30,2012-10-16 07:53:00
4:53 AM,54.0,43.0,66,29.93,10.0,North,4.6,-,N/A,,Clear,360,2012-10-16 08:53:00
6:53 AM,51.1,43.0,74,29.96,10.0,Calm,Calm,-,N/A,,Clear,0,2012-10-16 10:53:00
7:53 AM,52.0,42.1,69,29.97,10.0,North,4.6,-,N/A,,Clear,360,2012-10-16 11:53:00
8:53 AM,57.0,44.1,62,29.99,10.0,NNE,5.8,-,N/A,,Clear,20,2012-10-16 12:53:00
9:53 AM,61.0,43.0,52,29.99,10.0,NNE,8.1,-,N/A,,Clear,20,2012-10-16 13:53:00
10:53 AM,63.0,42.1,46,29.99,10.0,ESE,4.6,-,N/A,,Clear,120,2012-10-16 14:53:00
11:53 AM,64.9,41.0,42,29.99,10.0,ENE,4.6,-,N/A,,Clear,70,2012-10-16 15:53:00
12:53 PM,66.0,42.1,42,29.98,10.0,Calm,Calm,-,N/A,,Clear,0,2012-10-16 16:53:00
1:53 PM,68.0,42.1,39,29.95,10.0,Calm,Calm,-,N/A,,Clear,0,2012-10-16 17:53:00
2:53 PM,70.0,42.1,36,29.91,10.0,Calm,Calm,-,N/A,,Clear,0,2012-10-16 18:53:00
3:53 PM,71.1,41.0,34,29.90,10.0,SE,3.5,-,N/A,,Clear,130,2012-10-16 19:53:00
4:53 PM,70.0,41.0,35,29.89,10.0,Calm,Calm,-,N/A,,Clear,0,2012-10-16 20:53:00
5:53 PM,68.0,43.0,40,29.88,10.0,SSE,3.5,-,N/A,,Clear,150,2012-10-16 21:53:00
6:53 PM,66.0,43.0,43,29.89,10.0,South,4.6,-,N/A,,Clear,190,2012-10-16 22:53:00
7:53 PM,63.0,44.1,50,29.90,10.0,SSW,3.5,-,N/A,,Clear,210,2012-10-16 23:53:00
8:53 PM,62.1,45.0,53,29.91,10.0,Calm,Calm,-,N/A,,Clear,0,2012-10-17 00:53:00
9:53 PM,59.0,48.0,67,29.92,10.0,Calm,Calm,-,N/A,,Clear,0,2012-10-17 01:53:00
10:53 PM,59.0,46.0,62,29.92,10.0,Calm,Calm,-,N/A,,Clear,0,2012-10-17 02:53:00
11:53 PM,57.0,46.9,69,29.93,10.0,Calm,Calm,-,N/A,,Clear,0,2012-10-17 03:53:00